Year,Month,Day,Hour,Minute,Value (Times are PST for temperature in C)
2010,10,20,09,58,12.50
2010,10,20,09,59,12.50
2010,10,20,10,00,12.60
2010,10,20,10,01,12.60
2010,10,20,10,02,12.60
2010,10,20,10,03,12.70
2010,10,20,10,04,12.70
2010,10,20,10,05,12.70
2010,10,20,10,06,12.70
2010,10,20,10,07,12.80
2010,10,20,10,08,12.80
2010,10,20,10,09,12.80
2010,10,20,10,10,12.90
2010,10,20,10,11,12.90
2010,10,20,10,12,12.90
2010,10,20,10,13,12.90
2010,10,20,10,14,13.00
2010,10,20,10,15,13.00
2010,10,20,10,16,13.00
2010,10,20,10,17,13.10
2010,10,20,10,18,13.10
2010,10,20,10,19,13.20
2010,10,20,10,20,13.20
2010,10,20,10,21,13.20
2010,10,20,10,22,13.30
2010,10,20,10,23,13.30
2010,10,20,10,24,13.30
2010,10,20,10,25,13.30
2010,10,20,10,26,13.30
2010,10,20,10,27,13.30
2010,10,20,10,28,13.40
2010,10,20,10,29,13.40
2010,10,20,10,30,13.40
2010,10,20,10,31,13.50
2010,10,20,10,32,13.50
2010,10,20,10,33,13.60
2010,10,20,10,34,13.60
2010,10,20,10,35,13.60
2010,10,20,10,36,13.60
2010,10,20,10,37,13.70
2010,10,20,10,38,13.70
2010,10,20,10,39,13.70
2010,10,20,10,40,13.70
2010,10,20,10,41,13.80
2010,10,20,10,42,13.80
2010,10,20,10,43,13.80
2010,10,20,10,44,13.90
2010,10,20,10,45,13.90
2010,10,20,10,46,13.90
2010,10,20,10,47,13.90
2010,10,20,10,48,14.00
2010,10,20,10,49,14.00
2010,10,20,10,50,14.10
2010,10,20,10,51,14.10
2010,10,20,10,52,14.20
2010,10,20,10,53,14.20
2010,10,20,10,54,14.20
2010,10,20,10,55,14.10
2010,10,20,10,56,14.10
2010,10,20,10,57,14.10
2010,10,20,10,58,14.10
2010,10,20,10,59,14.10
2010,10,20,11,00,14.00
2010,10,20,11,01,14.00
2010,10,20,11,02,14.00
2010,10,20,11,03,14.00
2010,10,20,11,04,14.00
2010,10,20,11,05,14.10
2010,10,20,11,06,14.10
2010,10,20,11,07,14.10
2010,10,20,11,08,14.20
2010,10,20,11,09,14.20
2010,10,20,11,10,14.20
2010,10,20,11,11,14.20
2010,10,20,11,12,14.20
2010,10,20,11,13,14.20
2010,10,20,11,14,14.20
2010,10,20,11,15,14.20
2010,10,20,11,16,14.30
2010,10,20,11,17,14.40
2010,10,20,11,18,14.40
2010,10,20,11,19,14.40
2010,10,20,11,20,14.40
2010,10,20,11,21,14.40
2010,10,20,11,22,14.40
2010,10,20,11,23,14.50
2010,10,20,11,24,14.50
2010,10,20,11,25,14.60
2010,10,20,11,26,14.60
2010,10,20,11,27,14.60
2010,10,20,11,28,14.60
2010,10,20,11,29,14.70
2010,10,20,11,30,14.80
2010,10,20,11,31,14.80
2010,10,20,11,32,14.80
2010,10,20,11,33,14.80
2010,10,20,11,34,14.80
2010,10,20,11,35,14.80
2010,10,20,11,36,14.80
2010,10,20,11,37,14.80
2010,10,20,11,38,14.80
2010,10,20,11,39,14.80
2010,10,20,11,40,14.80
2010,10,20,11,41,14.80
2010,10,20,11,42,14.80
2010,10,20,11,43,14.90
2010,10,20,11,44,14.90
2010,10,20,11,45,14.90
2010,10,20,11,46,15.00
2010,10,20,11,47,15.00
2010,10,20,11,48,15.10
2010,10,20,11,49,15.10
2010,10,20,11,50,15.10
2010,10,20,11,51,15.10
2010,10,20,11,52,15.20
2010,10,20,11,53,15.20
2010,10,20,11,54,15.20
2010,10,20,11,55,15.20
2010,10,20,11,56,15.20
2010,10,20,11,57,15.30
2010,10,20,11,58,15.30
2010,10,20,11,59,15.30
2010,10,20,12,00,15.30
2010,10,20,12,01,15.30
2010,10,20,12,02,15.40
2010,10,20,12,03,15.40
2010,10,20,12,04,15.40
2010,10,20,12,05,15.40
2010,10,20,12,06,15.40
2010,10,20,12,07,15.40
2010,10,20,12,08,15.50
2010,10,20,12,09,15.50
2010,10,20,12,10,15.60
2010,10,20,12,11,15.70
2010,10,20,12,12,15.60
2010,10,20,12,13,15.60
2010,10,20,12,14,15.60
2010,10,20,12,15,15.60
2010,10,20,12,16,15.60
2010,10,20,12,17,15.60
2010,10,20,12,18,15.60
2010,10,20,12,19,15.60
2010,10,20,12,20,15.50
2010,10,20,12,21,15.50
2010,10,20,12,22,15.50
2010,10,20,12,23,15.60
2010,10,20,12,24,15.60
2010,10,20,12,25,15.60
2010,10,20,12,26,15.50
2010,10,20,12,27,15.50
2010,10,20,12,28,15.40
2010,10,20,12,29,15.40
2010,10,20,12,30,15.30
2010,10,20,12,31,15.30
2010,10,20,12,32,15.30
2010,10,20,12,33,15.30
2010,10,20,12,34,15.30
2010,10,20,12,35,15.30
2010,10,20,12,36,15.30
2010,10,20,12,37,15.30
2010,10,20,12,38,15.30
2010,10,20,12,39,15.30
2010,10,20,12,40,15.30
2010,10,20,12,41,15.30
2010,10,20,12,42,15.30
2010,10,20,12,43,15.40
2010,10,20,12,44,15.40
2010,10,20,12,45,15.40
2010,10,20,12,46,15.40
2010,10,20,12,47,15.40
2010,10,20,12,48,15.30
2010,10,20,12,49,15.40
2010,10,20,12,50,15.40
2010,10,20,12,51,15.40
2010,10,20,12,52,15.40
2010,10,20,12,53,15.40
2010,10,20,12,54,15.40
2010,10,20,12,55,15.50
2010,10,20,12,56,15.50
2010,10,20,12,57,15.50
2010,10,20,12,58,15.50
2010,10,20,12,59,15.50
2010,10,20,13,00,15.60
2010,10,20,13,01,15.50
2010,10,20,13,02,15.60
2010,10,20,13,03,15.60
2010,10,20,13,04,15.60
2010,10,20,13,05,15.70
2010,10,20,13,06,15.70
2010,10,20,13,07,15.80
2010,10,20,13,08,15.80
2010,10,20,13,09,15.80
2010,10,20,13,10,15.80
2010,10,20,13,11,15.80
2010,10,20,13,12,15.80
2010,10,20,13,13,15.80
2010,10,20,13,14,15.80
2010,10,20,13,15,15.80
2010,10,20,13,16,15.80
2010,10,20,13,17,15.80
2010,10,20,13,18,15.90
2010,10,20,13,19,15.90
2010,10,20,13,20,15.90
2010,10,20,13,21,16.00
2010,10,20,13,22,16.10
2010,10,20,13,23,16.10
2010,10,20,13,24,16.10
2010,10,20,13,25,16.10
2010,10,20,13,26,16.10
2010,10,20,13,27,16.10
2010,10,20,13,28,16.10
2010,10,20,13,29,16.10
2010,10,20,13,30,16.10
2010,10,20,13,31,16.10
2010,10,20,13,32,16.20
2010,10,20,13,33,16.20
2010,10,20,13,34,16.20
2010,10,20,13,35,16.30
2010,10,20,13,36,16.30
2010,10,20,13,37,16.30
2010,10,20,13,38,16.30
2010,10,20,13,39,16.40
2010,10,20,13,40,16.40
2010,10,20,13,41,16.40
2010,10,20,13,42,16.40
2010,10,20,13,43,16.40
2010,10,20,13,44,16.40
2010,10,20,13,45,16.40
2010,10,20,13,46,16.40
2010,10,20,13,47,16.40
2010,10,20,13,48,16.40
2010,10,20,13,49,16.40
2010,10,20,13,50,16.40
2010,10,20,13,51,16.60
2010,10,20,13,52,16.60
2010,10,20,13,53,16.60
2010,10,20,13,54,16.70
2010,10,20,13,55,16.70
2010,10,20,13,56,16.70
2010,10,20,13,57,16.70
2010,10,20,13,58,16.70
2010,10,20,13,59,16.70
2010,10,20,14,00,16.80
2010,10,20,14,01,16.80
2010,10,20,14,02,16.90
2010,10,20,14,03,16.90
2010,10,20,14,04,16.90
2010,10,20,14,05,16.90
2010,10,20,14,06,16.90
2010,10,20,14,07,16.90
2010,10,20,14,08,17.00
2010,10,20,14,09,17.00
2010,10,20,14,10,17.00
2010,10,20,14,11,17.00
2010,10,20,14,12,17.00
2010,10,20,14,13,17.10
2010,10,20,14,14,17.10
2010,10,20,14,15,17.20
2010,10,20,14,16,17.20
2010,10,20,14,17,17.20
2010,10,20,14,18,17.20
2010,10,20,14,19,17.20
2010,10,20,14,20,17.20
2010,10,20,14,21,17.20
2010,10,20,14,22,17.20
2010,10,20,14,23,17.20
2010,10,20,14,24,17.20
2010,10,20,14,25,17.30
2010,10,20,14,26,17.30
2010,10,20,14,27,17.30
2010,10,20,14,28,17.30
2010,10,20,14,29,17.30
2010,10,20,14,30,17.30
2010,10,20,14,31,17.30
2010,10,20,14,32,17.30
2010,10,20,14,33,17.30
2010,10,20,14,34,17.30
2010,10,20,14,35,17.30
2010,10,20,14,36,17.30
2010,10,20,14,37,17.30
2010,10,20,14,38,17.30
2010,10,20,14,39,17.30
2010,10,20,14,40,17.30
2010,10,20,14,41,17.30
2010,10,20,14,42,17.30
2010,10,20,14,43,17.30
2010,10,20,14,44,17.30
2010,10,20,14,45,17.30
2010,10,20,14,46,17.30
2010,10,20,14,47,17.30
2010,10,20,14,48,17.20
2010,10,20,14,49,17.20
2010,10,20,14,50,17.20
2010,10,20,14,51,17.30
2010,10,20,14,52,17.30
2010,10,20,14,53,17.30
2010,10,20,14,54,17.20
2010,10,20,14,55,17.10
2010,10,20,14,56,17.10
2010,10,20,14,57,17.00
2010,10,20,14,58,17.10
2010,10,20,14,59,17.10
2010,10,20,15,00,17.00
2010,10,20,15,01,16.90
2010,10,20,15,02,16.90
2010,10,20,15,03,16.90
2010,10,20,15,04,16.90
2010,10,20,15,05,16.80
2010,10,20,15,06,16.80
2010,10,20,15,07,16.80
2010,10,20,15,08,16.80
2010,10,20,15,09,16.80
2010,10,20,15,10,16.90
2010,10,20,15,11,16.90
2010,10,20,15,12,16.80
2010,10,20,15,13,16.80
2010,10,20,15,14,16.80
2010,10,20,15,15,16.80
2010,10,20,15,16,16.80
2010,10,20,15,17,16.80
2010,10,20,15,18,16.80
2010,10,20,15,19,16.80
2010,10,20,15,20,16.90
2010,10,20,15,21,16.90
2010,10,20,15,22,16.90
2010,10,20,15,23,16.80
2010,10,20,15,24,16.80
2010,10,20,15,25,16.80
2010,10,20,15,26,16.70
2010,10,20,15,27,16.80
2010,10,20,15,28,16.80
2010,10,20,15,29,16.80
2010,10,20,15,30,16.80
2010,10,20,15,31,16.80
2010,10,20,15,32,16.80
2010,10,20,15,33,16.80
2010,10,20,15,34,16.70
2010,10,20,15,35,16.50
2010,10,20,15,36,16.30
2010,10,20,15,37,16.20
2010,10,20,15,38,16.10
2010,10,20,15,39,16.00
2010,10,20,15,40,15.90
2010,10,20,15,41,15.80
2010,10,20,15,42,15.80
2010,10,20,15,43,15.70
2010,10,20,15,44,15.60
2010,10,20,15,45,15.60
2010,10,20,15,46,15.50
2010,10,20,15,47,15.40
2010,10,20,15,48,15.40
2010,10,20,15,49,15.30
2010,10,20,15,50,15.20
2010,10,20,15,51,15.10
2010,10,20,15,52,15.00
2010,10,20,15,53,14.80
2010,10,20,15,54,14.70
2010,10,20,15,55,14.60
2010,10,20,15,56,14.50
2010,10,20,15,57,14.50
2010,10,20,15,58,14.40
2010,10,20,15,59,14.30
2010,10,20,16,00,14.30
2010,10,20,16,01,14.20
2010,10,20,16,02,14.20
2010,10,20,16,03,14.20
2010,10,20,16,04,14.20
2010,10,20,16,05,14.10
2010,10,20,16,06,14.10
2010,10,20,16,07,14.10
2010,10,20,16,08,14.00
2010,10,20,16,09,13.90
2010,10,20,16,10,13.90
2010,10,20,16,11,13.80
2010,10,20,16,12,13.70
2010,10,20,16,13,13.70
2010,10,20,16,14,13.70
2010,10,20,16,15,13.60
2010,10,20,16,16,13.60
2010,10,20,16,17,13.60
2010,10,20,16,18,13.60
2010,10,20,16,19,13.60
2010,10,20,16,20,13.60
2010,10,20,16,21,13.50
2010,10,20,16,22,13.50
2010,10,20,16,23,13.50
2010,10,20,16,24,13.50
2010,10,20,16,25,13.40
2010,10,20,16,26,13.40
2010,10,20,16,27,13.40
2010,10,20,16,28,13.40
2010,10,20,16,29,13.40
2010,10,20,16,30,13.40
2010,10,20,16,31,13.40
2010,10,20,16,32,13.40
2010,10,20,16,33,13.40
2010,10,20,16,34,13.40
2010,10,20,16,35,13.40
2010,10,20,16,36,13.40
2010,10,20,16,37,13.40
2010,10,20,16,38,13.40
2010,10,20,16,39,13.40
2010,10,20,16,40,13.40
2010,10,20,16,41,13.40
2010,10,20,16,42,13.40
2010,10,20,16,43,13.30
2010,10,20,16,44,13.30
2010,10,20,16,45,13.30
2010,10,20,16,46,13.30
2010,10,20,16,47,13.30
2010,10,20,16,48,13.30
2010,10,20,16,49,13.30
2010,10,20,16,50,13.30
2010,10,20,16,51,13.30
2010,10,20,16,52,13.30
2010,10,20,16,53,13.40
2010,10,20,16,54,13.40
2010,10,20,16,55,13.40
2010,10,20,16,56,13.40
2010,10,20,16,57,13.40
2010,10,20,16,58,13.40
2010,10,20,16,59,13.40
2010,10,20,17,00,13.30
2010,10,20,17,01,13.30
2010,10,20,17,02,13.30
2010,10,20,17,03,13.30
2010,10,20,17,04,13.30
2010,10,20,17,05,13.30
2010,10,20,17,06,13.30
2010,10,20,17,07,13.30
2010,10,20,17,08,13.30
2010,10,20,17,09,13.30
2010,10,20,17,10,13.30
2010,10,20,17,11,13.20
2010,10,20,17,12,13.20
2010,10,20,17,13,13.20
2010,10,20,17,14,13.20
2010,10,20,17,15,13.20
2010,10,20,17,16,13.20
2010,10,20,17,17,13.20
2010,10,20,17,18,13.20
2010,10,20,17,19,13.20
2010,10,20,17,20,13.20
2010,10,20,17,21,13.20
2010,10,20,17,22,13.20
2010,10,20,17,23,13.20
2010,10,20,17,24,13.30
2010,10,20,17,25,13.30
2010,10,20,17,26,13.30
2010,10,20,17,27,13.30
2010,10,20,17,28,13.30
2010,10,20,17,29,13.30
2010,10,20,17,30,13.30
2010,10,20,17,31,13.30
2010,10,20,17,32,13.20
2010,10,20,17,33,13.20
2010,10,20,17,34,13.20
2010,10,20,17,35,13.20
2010,10,20,17,36,13.20
2010,10,20,17,37,13.10
2010,10,20,17,38,13.10
2010,10,20,17,39,13.10
2010,10,20,17,40,13.10
2010,10,20,17,41,13.00
2010,10,20,17,42,13.00
2010,10,20,17,43,13.00
2010,10,20,17,44,13.00
2010,10,20,17,45,12.90
2010,10,20,17,46,12.90
2010,10,20,17,47,12.90
2010,10,20,17,48,12.90
2010,10,20,17,49,12.80
2010,10,20,17,50,12.80
2010,10,20,17,51,12.80
2010,10,20,17,52,12.80
2010,10,20,17,53,12.80
2010,10,20,17,54,12.70
2010,10,20,17,55,12.70
2010,10,20,17,56,12.70
2010,10,20,17,57,12.60
2010,10,20,17,58,12.60
2010,10,20,17,59,12.60
2010,10,20,18,00,12.50
2010,10,20,18,01,12.50
2010,10,20,18,02,12.50
2010,10,20,18,03,12.40
2010,10,20,18,04,12.40
2010,10,20,18,05,12.40
2010,10,20,18,06,12.30
2010,10,20,18,07,12.30
2010,10,20,18,08,12.30
2010,10,20,18,09,12.30
2010,10,20,18,10,12.30
2010,10,20,18,11,12.20
2010,10,20,18,12,12.20
2010,10,20,18,13,12.20
2010,10,20,18,14,12.10
2010,10,20,18,15,12.10
2010,10,20,18,16,12.10
2010,10,20,18,17,12.00
2010,10,20,18,18,12.00
2010,10,20,18,19,12.00
2010,10,20,18,20,11.90
2010,10,20,18,21,11.90
2010,10,20,18,22,11.90
2010,10,20,18,23,11.80
2010,10,20,18,24,11.80
2010,10,20,18,25,11.80
2010,10,20,18,26,11.80
2010,10,20,18,27,11.80
2010,10,20,18,28,11.70
2010,10,20,18,29,11.70
2010,10,20,18,30,11.60
2010,10,20,18,31,11.60
2010,10,20,18,32,11.60
2010,10,20,18,33,11.60
2010,10,20,18,34,11.60
2010,10,20,18,35,11.60
2010,10,20,18,36,11.40
2010,10,20,18,37,11.40
2010,10,20,18,38,11.40
2010,10,20,18,39,11.40
2010,10,20,18,40,11.40
2010,10,20,18,41,11.40
2010,10,20,18,42,11.30
2010,10,20,18,43,11.30
2010,10,20,18,44,11.30
2010,10,20,18,45,11.30
2010,10,20,18,46,11.30
2010,10,20,18,47,11.30
2010,10,20,18,48,11.30
2010,10,20,18,49,11.30
2010,10,20,18,50,11.20
2010,10,20,18,51,11.20
2010,10,20,18,52,11.20
2010,10,20,18,53,11.20
2010,10,20,18,54,11.20
2010,10,20,18,55,11.20
2010,10,20,18,56,11.20
2010,10,20,18,57,11.20
2010,10,20,18,58,11.20
2010,10,20,18,59,11.20
2010,10,20,19,00,11.20
2010,10,20,19,01,11.20
2010,10,20,19,02,11.20
2010,10,20,19,03,11.10
2010,10,20,19,04,11.10
2010,10,20,19,05,11.10
2010,10,20,19,06,11.10
2010,10,20,19,07,11.10
2010,10,20,19,08,11.10
2010,10,20,19,09,11.10
2010,10,20,19,10,11.10
2010,10,20,19,11,11.00
2010,10,20,19,12,10.90
2010,10,20,19,13,10.90
2010,10,20,19,14,10.90
2010,10,20,19,15,10.90
2010,10,20,19,16,10.90
2010,10,20,19,17,10.90
2010,10,20,19,18,10.90
2010,10,20,19,19,10.90
2010,10,20,19,20,10.80
2010,10,20,19,21,10.80
2010,10,20,19,22,10.80
2010,10,20,19,23,10.70
2010,10,20,19,24,10.70
2010,10,20,19,25,10.70
2010,10,20,19,26,10.60
2010,10,20,19,27,10.60
2010,10,20,19,28,10.60
2010,10,20,19,29,10.60
2010,10,20,19,30,10.40
2010,10,20,19,31,10.40
2010,10,20,19,32,10.40
2010,10,20,19,33,10.40
2010,10,20,19,34,10.30
2010,10,20,19,35,10.30
2010,10,20,19,36,10.30
2010,10,20,19,37,10.20
2010,10,20,19,38,10.20
2010,10,20,19,39,10.10
2010,10,20,19,40,10.10
2010,10,20,19,41,10.10
2010,10,20,19,42,10.10
2010,10,20,19,43,10.10
2010,10,20,19,44,10.10
2010,10,20,19,45,10.10
2010,10,20,19,46,10.10
2010,10,20,19,47,10.10
2010,10,20,19,48,10.10
2010,10,20,19,49,10.10
2010,10,20,19,50,10.10
2010,10,20,19,51,10.00
2010,10,20,19,52,9.90
2010,10,20,19,53,9.90
2010,10,20,19,54,9.90
2010,10,20,19,55,9.90
2010,10,20,19,56,9.90
2010,10,20,19,57,9.90
2010,10,20,19,58,9.90
2010,10,20,19,59,9.90
2010,10,20,20,00,9.90
2010,10,20,20,01,9.90
2010,10,20,20,02,9.90
2010,10,20,20,03,9.90
2010,10,20,20,04,9.90
2010,10,20,20,05,9.90
2010,10,20,20,06,9.90
2010,10,20,20,07,9.90
2010,10,20,20,08,9.90
2010,10,20,20,09,9.80
2010,10,20,20,10,9.80
2010,10,20,20,11,9.70
2010,10,20,20,12,9.70
2010,10,20,20,13,9.70
2010,10,20,20,14,9.70
2010,10,20,20,15,9.70
2010,10,20,20,16,9.70
2010,10,20,20,17,9.60
2010,10,20,20,18,9.60
2010,10,20,20,19,9.60
2010,10,20,20,20,9.60
2010,10,20,20,21,9.50
2010,10,20,20,22,9.50
2010,10,20,20,23,9.50
2010,10,20,20,24,9.50
2010,10,20,20,25,9.40
2010,10,20,20,26,9.50
2010,10,20,20,27,9.50
2010,10,20,20,28,9.50
2010,10,20,20,29,9.50
2010,10,20,20,30,9.50
2010,10,20,20,31,9.40
2010,10,20,20,32,9.40
2010,10,20,20,33,9.40
2010,10,20,20,34,9.40
2010,10,20,20,35,9.30
2010,10,20,20,36,9.30
2010,10,20,20,37,9.20
2010,10,20,20,38,9.20
2010,10,20,20,39,9.20
2010,10,20,20,40,9.20
2010,10,20,20,41,9.20
2010,10,20,20,42,9.10
2010,10,20,20,43,9.10
2010,10,20,20,44,9.00
2010,10,20,20,45,9.00
2010,10,20,20,46,9.00
2010,10,20,20,47,8.90
2010,10,20,20,48,8.90
2010,10,20,20,49,8.90
2010,10,20,20,50,8.90
2010,10,20,20,51,8.80
2010,10,20,20,52,8.80
2010,10,20,20,53,8.80
2010,10,20,20,54,8.80
2010,10,20,20,55,8.70
2010,10,20,20,56,8.70
2010,10,20,20,57,8.70
2010,10,20,20,58,8.70
2010,10,20,20,59,8.70
2010,10,20,21,00,8.70
2010,10,20,21,01,8.70
2010,10,20,21,02,8.70
2010,10,20,21,03,8.70
2010,10,20,21,04,8.70
2010,10,20,21,05,8.70
2010,10,20,21,06,8.70
2010,10,20,21,07,8.60
2010,10,20,21,08,8.60
2010,10,20,21,09,8.60
2010,10,20,21,10,8.60
2010,10,20,21,11,8.60
2010,10,20,21,12,8.50
2010,10,20,21,13,8.50
2010,10,20,21,14,8.50
2010,10,20,21,15,8.40
2010,10,20,21,16,8.40
2010,10,20,21,17,8.40
2010,10,20,21,18,8.40
2010,10,20,21,19,8.30
2010,10,20,21,20,8.30
2010,10,20,21,21,8.30
2010,10,20,21,22,8.30
2010,10,20,21,23,8.30
2010,10,20,21,24,8.30
2010,10,20,21,25,8.30
2010,10,20,21,26,8.30
2010,10,20,21,27,8.30
2010,10,20,21,28,8.40
2010,10,20,21,29,8.40
2010,10,20,21,30,8.40
2010,10,20,21,31,8.40
2010,10,20,21,32,8.30
2010,10,20,21,33,8.30
2010,10,20,21,34,8.30
2010,10,20,21,35,8.30
2010,10,20,21,36,8.20
2010,10,20,21,37,8.20
2010,10,20,21,38,8.20
2010,10,20,21,39,8.20
2010,10,20,21,40,8.20
2010,10,20,21,41,8.20
2010,10,20,21,42,8.20
2010,10,20,21,43,8.20
2010,10,20,21,44,8.20
2010,10,20,21,45,8.20
2010,10,20,21,46,8.20
2010,10,20,21,47,8.20
2010,10,20,21,48,8.10
2010,10,20,21,49,8.10
2010,10,20,21,50,8.10
2010,10,20,21,51,8.10
2010,10,20,21,52,8.10
2010,10,20,21,53,8.10
2010,10,20,21,54,8.10
2010,10,20,21,55,8.10
2010,10,20,21,56,8.00
2010,10,20,21,57,8.00
2010,10,20,21,58,8.00
2010,10,20,21,59,8.00
2010,10,20,22,00,7.90
2010,10,20,22,01,7.90
2010,10,20,22,02,7.90
2010,10,20,22,03,7.80
2010,10,20,22,04,7.80
2010,10,20,22,05,7.80
2010,10,20,22,06,7.80
2010,10,20,22,07,7.80
2010,10,20,22,08,7.80
2010,10,20,22,09,7.80
2010,10,20,22,10,7.80
2010,10,20,22,11,7.80
2010,10,20,22,12,7.80
2010,10,20,22,13,7.80
2010,10,20,22,14,7.80
2010,10,20,22,15,7.80
2010,10,20,22,16,7.80
2010,10,20,22,17,7.80
2010,10,20,22,18,7.80
2010,10,20,22,19,7.80
2010,10,20,22,20,7.70
2010,10,20,22,21,7.70
2010,10,20,22,22,7.70
2010,10,20,22,23,7.60
2010,10,20,22,24,7.60
2010,10,20,22,25,7.60
2010,10,20,22,26,7.60
2010,10,20,22,27,7.60
2010,10,20,22,28,7.60
2010,10,20,22,29,7.60
2010,10,20,22,30,7.50
2010,10,20,22,31,7.50
2010,10,20,22,32,7.50
2010,10,20,22,33,7.50
2010,10,20,22,34,7.50
2010,10,20,22,35,7.50
2010,10,20,22,36,7.50
2010,10,20,22,37,7.50
2010,10,20,22,38,7.60
2010,10,20,22,39,7.60
2010,10,20,22,40,7.60
2010,10,20,22,41,7.70
2010,10,20,22,42,7.70
2010,10,20,22,43,7.70
2010,10,20,22,44,7.70
2010,10,20,22,45,7.60
2010,10,20,22,46,7.60
2010,10,20,22,47,7.60
2010,10,20,22,48,7.60
2010,10,20,22,49,7.50
2010,10,20,22,50,7.50
2010,10,20,22,51,7.50
2010,10,20,22,52,7.50
2010,10,20,22,53,7.40
2010,10,20,22,54,7.40
2010,10,20,22,55,7.30
2010,10,20,22,56,7.30
2010,10,20,22,57,7.30
2010,10,20,22,58,7.30
2010,10,20,22,59,7.30
2010,10,20,23,00,7.20
2010,10,20,23,01,7.20
2010,10,20,23,02,7.20
2010,10,20,23,03,7.20
2010,10,20,23,04,7.10
2010,10,20,23,05,7.10
2010,10,20,23,06,7.10
2010,10,20,23,07,7.10
2010,10,20,23,08,7.10
2010,10,20,23,09,7.10
2010,10,20,23,10,7.10
2010,10,20,23,11,7.10
2010,10,20,23,12,7.00
2010,10,20,23,13,7.00
2010,10,20,23,14,7.00
2010,10,20,23,15,7.00
2010,10,20,23,16,7.00
2010,10,20,23,17,7.00
2010,10,20,23,18,7.10
2010,10,20,23,19,7.10
2010,10,20,23,20,7.10
2010,10,20,23,21,7.10
2010,10,20,23,22,7.10
2010,10,20,23,23,7.20
2010,10,20,23,24,7.20
2010,10,20,23,25,7.20
2010,10,20,23,26,7.20
2010,10,20,23,27,7.20
2010,10,20,23,28,7.20
2010,10,20,23,29,7.10
2010,10,20,23,30,7.10
2010,10,20,23,31,7.00
2010,10,20,23,32,7.00
2010,10,20,23,33,7.00
2010,10,20,23,34,6.90
2010,10,20,23,35,6.90
2010,10,20,23,36,6.80
2010,10,20,23,37,6.80
2010,10,20,23,38,6.80
2010,10,20,23,39,6.80
2010,10,20,23,40,6.70
2010,10,20,23,41,6.70
2010,10,20,23,42,6.70
2010,10,20,23,43,6.70
2010,10,20,23,44,6.60
2010,10,20,23,45,6.60
2010,10,20,23,46,6.60
2010,10,20,23,47,6.60
2010,10,20,23,48,6.60
2010,10,20,23,49,6.60
2010,10,20,23,50,6.60
2010,10,20,23,51,6.60
2010,10,20,23,52,6.60
2010,10,20,23,53,6.60
2010,10,20,23,54,6.60
2010,10,20,23,55,6.60
2010,10,20,23,56,6.70
2010,10,20,23,57,6.70
2010,10,20,23,58,6.70
2010,10,20,23,59,6.80
